Station 46092 - MBM1 Image indicating link to RSS feed of recent meteorological observations for station 46092


Conditions at 46092 as of
(9:52 am PDT)
1652 GMT on 06/23/2024:
     

Click on the graph icon in the table below to see a time series plot of the last five days of that observation.

5-day plot - Wind Direction Wind Direction (WDIR): W ( 280 deg true )
5-day plot - Wind Speed Wind Speed (WSPD): 3.9 kts
5-day plot - Atmospheric Pressure Atmospheric Pressure (PRES):29.98 in
5-day plot - Pressure Tendency Pressure Tendency (PTDY):+0.05 in ( Rising )
5-day plot - Air Temperature Air Temperature (ATMP): 49.6 °F
5-day plot - Water Temperature Water Temperature (WTMP): 53.1 °F
5-day plot - Wind Chill Wind Chill (CHILL): 48.2 °F
5-day plot - Wind Speed at 10 Meters Wind Speed at 10 meters (WSPD10M): 3.9 kts
5-day plot - Wind Speed at 20 Meters Wind Speed at 20 meters (WSPD20M): 3.9 kts
5-day plot -  Wind Speed, Wind Gust and Atmospheric Pressure Combined plot of Wind Speed, Gust, and Air Pressure
Previous observations
TIME
(PDT)
5-day plot - Wind Direction
WDIR
 
5-day plot - Wind Speed
WSPD
kts
5-day plot - Wind Gust
GST
kts
5-day plot - Wave Height
WVHT
ft
5-day plot - Dominant Wave Period
DPD
sec
5-day plot - Average Wave Period
APD
sec
5-day plot - Mean Wave Direction
MWD
 
5-day plot - Atmospheric Pressure
PRES
in
5-day plot - Pressure Tendency
PTDY
in
5-day plot - Air Temperature
ATMP
°F
5-day plot - Water Temperature
WTMP
°F
5-day plot - Dew Point
DEWP
°F
5-day plot - Salinity
SAL
psu
5-day plot - Visibility
VIS
nmi
5-day plot - Tide (above MLLW)
TIDE
ft
2024-06-23 08:52 am W 3.9-----29.96+0.05 49.3 52.9----
2024-06-23 07:52 am- 0.0-----29.95+0.04 49.1 52.3----
2024-06-23 06:52 am- 0.0-----29.93+0.01 48.7 52.2----
2024-06-23 05:52 am- 0.0-----29.91+0.00 48.9 52.0----
2024-06-23 04:52 am- 0.0-----29.91+0.00 49.8 52.2----
2024-06-23 03:52 am- 0.0-----29.91+0.00 50.7 52.2----
2024-06-23 02:52 am- 0.0-----29.91+0.00 51.3 52.3----
2024-06-23 01:52 am E 1.9-----29.92+0.01 51.1 52.3----
2024-06-23 12:52 am- 0.0-----29.91+0.01 50.4 52.0----
2024-06-23 12:12 am S 3.9-----29.91+0.04 50.0 52.0----
2024-06-22 11:12 pm SW 1.9-----29.91+0.03 50.0 52.3----
2024-06-22 10:12 pm- 0.0-----29.91+0.04 50.0 52.3----
2024-06-22 09:12 pm NW 3.9-----29.88+0.01 50.9 52.9----
2024-06-22 08:12 pmWSW 3.9-----29.88+0.00 51.1 53.1----
2024-06-22 07:12 pmWSW 3.9-----29.87-0.01 51.3 53.1----
2024-06-22 06:12 pmWNW 5.8-----29.86-0.02 51.8 53.4----
2024-06-22 05:12 pm W 5.8-----29.87-0.01 51.6 54.0----
2024-06-22 04:12 pm W 9.7-----29.88-0.03 51.4 54.0----
2024-06-22 03:12 pmWSW 9.7-----29.88-0.02 52.3 53.8----
2024-06-22 02:12 pm SW 9.7-----29.88-0.01 52.3 53.8----
2024-06-22 01:12 pm SW 9.7-----29.91+0.02 51.3 54.3----
2024-06-22 12:12 pm SW 9.7-----29.90+0.03 50.4 54.3----
2024-06-22 11:12 am SW 7.8-----29.90+0.04 50.0 54.1----
2024-06-22 10:12 amWSW 1.9-----29.88+0.04 50.7 54.0----